Location: Indian Hills
(32.9760°N, 85.9450°W)
Time: 17:21:15
(UTC+00:00)

Cosmos 1943 - Pass Details

Date: 09 December 2019
Orbit: 835 x 849 km, 71.0° (Epoch: 25 January)

Event Time Altitude Azimuth Distance (km) Brightness Sun altitude
Exits shadow 11:03:22 - 349° (N) 2,935 5.8 -18.7°
Reaches altitude 10° 11:04:42 10° 353° (N) 2,449 5.4 -18.4°
Maximum altitude 11:10:04 45° 66° (ENE) 1,120 4.2 -17.4°
Drops below altitude 10° 11:15:25 10° 138° (SE) 2,441 6.5 -16.3°
Sets 11:17:57 0° 145° (SE) 3,374 7.2 -15.8°
